Flag for Grenada Weather past 2 weeks in Saint George's, Grenada

Now
81 °F

Scattered clouds.


Feels Like: 85 °F
Forecast: 74 / 81 °F
Wind: 18 mph from Southeast

Location: Point Salines Airport

Current Time: Mar 28, 2015 at 11:03:25 AM

Latest Report: Mar 28, 2015 at 10:00 AM


Visibility: N/A

Pressure: 30.07 "Hg

Humidity: 79%

Dew point: 73 °F

Location of Saint George'sLocation

Historic Weather in Saint George's — Graph

°F

Saint George's temperature yesterday

Maximum temperature yesterday: 86 °F (at 11:00 AM)
Minimum temperature yesterday: 77 °F (at 2:00 AM)
Average temperature yesterday: 81 °F

Past Weeks' High & Low Weather Summary

 TemperatureHumidityPressure
High88 °F (Mar 14, 1:00 PM)100% (Mar 19, 12:00 PM)30.07 "Hg (Mar 19, 12:00 PM)
Low73 °F (Mar 21, 5:00 AM)52% (Mar 14, 1:00 PM)29.86 "Hg (Mar 13, 4:00 PM)
Average80 °F79%29.95 "Hg
* Reported Mar 13 10:00 AM — Mar 28 10:00 AM, Saint George's, Weather by CustomWeather, © 2015

Note: Actual official high and low records may vary slightly from our data, if they occured in-between our weather recording intervals... More about our weather records

Advertising

Saint George's weather history for previous 24 hours

 ConditionsComfort  
Time TempWeatherWind HumidityBarometerVisibility
10:00 AM
Sat, Mar 28
81 °FScattered clouds.18 mph79%30.07 "HgN/A
9:00 AM79 °FScattered clouds.16 mph84%30.07 "HgN/A
8:00 AM79 °FSprinkles. Partly sunny.17 mph84%30.04 "HgN/A
7:00 AM79 °FScattered clouds.18 mph84%30.01 "HgN/A
6:00 AM77 °FPassing clouds.14 mph83%29.98 "HgN/A
5:00 AM77 °FPassing clouds.12 mph83%29.98 "HgN/A
4:00 AM77 °FPassing clouds.13 mph83%29.98 "HgN/A
2:00 AM79 °FPassing clouds.16 mph79%29.98 "HgN/A
1:00 AM79 °FPassing clouds.16 mph79%29.98 "HgN/A
12:00 AM79 °FPartly cloudy.12 mph84%30.01 "HgN/A
11:00 PM
Fri, Mar 27
79 °FPassing clouds.12 mph84%30.04 "HgN/A
10:00 PM79 °FPassing clouds.18 mph79%30.01 "HgN/A
9:00 PM79 °FPassing clouds.16 mph79%30.01 "HgN/A
8:00 PM79 °FPassing clouds.17 mph79%29.98 "HgN/A
7:00 PM79 °FPassing clouds.17 mph79%29.95 "HgN/A
6:00 PM81 °FPassing clouds.16 mph74%29.95 "HgN/A
5:00 PM82 °FPassing clouds.20 mph70%29.95 "HgN/A
4:00 PM84 °FPassing clouds.23 mph62%29.95 "HgN/A
3:00 PM84 °FPassing clouds.26 mph66%29.95 "HgN/A
2:00 PM86 °FPassing clouds.23 mph62%29.98 "HgN/A
1:00 PM84 °FPassing clouds.22 mph66%29.98 "HgN/A
12:00 PM86 °FPassing clouds.23 mph59%30.01 "HgN/A
11:00 AM86 °FScattered clouds.23 mph66%30.04 "HgN/A
Weather by CustomWeather, © 2015

See weather overviewHow to use our weather pages